Portada
METAR-TAF:

METAR-TAF

Aeropuertos :

Aeropuerto de Castellón-Costa Azahar

Castellón de la Plana, España

latitud: 40-12-35N, longitud: 0-04-11E, altitud: 360 m

Observación

El informe se hizo hace 24 minutos, a las 07:30 UTC
Viento 5 kt del norte, variando entre noroeste y norte-noreste
Temperatura 24°C
Humedad 78%
Presión 1017 hPa
Visibilidad 10 km o más
Escasas nubes a una altura de 1400 ft

METAR: LECH 140730Z AUTO 36005KT 320V030 9999 FEW014 24/20 Q1017

Hora: 09:54 (07:54 UTC)


TAF: falta

Observaciones y pronósticos meteorológicos de más de 4000 aeropuertos (mensajes METAR y TAF).

Los puntos amarillos y rojos representan las estaciones disponibles.

Ponga el ratón en el punto deseado para ver el nombre de la estación.

Haga clic para ver las observaciones y los pronósticos meteorológicos.

Para cambiar el mapa : haga clic en los botones verdes con una cruz de color negro para hacer un zoom, en el botón verde con un guión para alejar o en las flechas verdes para mapas adyacentes.


METAR-TAF: